Location: Buhla
(51.4333°N, 10.4333°E)
Time: 00:32:15
(UTC+00:00)

Daily predictions for brighter satellites

Satellite Brightness Start Highest point End
(mag) Time Altitude Azimuth Time Altitude Azimuth Time Altitude Azimuth
SL-16 R/B 3.2 00:12:20 50° NE 00:12:20 50° NE 00:17:31 10° N
Cosmos 1943 Rocket 3.6 00:17:17 32° NNW 00:17:17 32° NNW 00:21:02 10° NNE
COSMOS 2455 4.4 00:18:59 26° NW 00:19:45 27° NNW 00:24:51 10° NNE
CZ-2D R/B 3.7 00:17:27 10° NNE 00:20:45 29° ENE 00:20:45 29° ENE
ATLAS 5 CENTAUR R/B 4.3 00:26:24 15° ENE 00:26:24 15° ENE 00:27:22 10° ENE
Cosmos 2297 Rocket 3.2 00:24:20 10° NNW 00:28:49 42° NNE 00:28:49 42° NNE
Resurs 1-4 Rocket 3.4 00:31:22 10° NNE 00:34:54 35° ENE 00:34:54 35° ENE
Cosmos 2369 Rocket 3.5 00:41:05 34° NNW 00:41:05 34° NNW 00:45:14 10° NNE
NOSS 3-1 (A) 4.5 00:32:49 10° NW 00:37:40 47° WNW 00:37:40 47° WNW
Nadezhda 1 Rocket 4.5 00:42:41 55° N 00:42:41 55° N 00:47:21 10° N
Gbstr 26 Del rocket 4.4 00:44:54 85° E 00:44:54 85° E 00:52:35 10° E
CZ-4C R/B 3.7 00:47:10 29° NW 00:48:33 32° NNW 00:54:35 10° NE
USA 267 4.4 00:50:00 10° ENE 00:54:57 31° ESE 00:54:57 31° ESE
ATLAS 2AS CENTAUR R/B 4.4 00:51:21 10° WNW 00:58:20 33° N 01:05:00 10° ENE
SL-8 Rocket 4.1 01:06:38 10° N 01:12:12 71° NNW 01:12:12 71° NNW
Meteor 2-2 Rocket 4.4 01:23:00 66° N 01:23:00 66° N 01:28:02 10° NNE
Cosmos 2218 Rocket 3.9 01:17:54 10° N 01:24:06 83° NW 01:24:06 83° NW
Cosmos 2366 rocket 3.9 01:20:29 10° N 01:26:34 83° NW 01:26:34 83° NW
Cosmos 2227 Rocket 2.9 01:21:19 10° NNW 01:25:13 46° NNW 01:25:13 46° NNW
Cosmos 1992 Rocket 4.4 01:30:28 58° ENE 01:30:28 58° ENE 01:35:04 10° NNE
Cosmos 1656 4.2 01:30:38 48° ESE 01:30:38 48° ESE 01:35:50 10° NE
Lacrosse 5 3.7 01:32:48 22° ESE 01:32:48 22° ESE 01:36:03 10° ENE
USA 234 3.1 01:26:39 10° ESE 01:33:12 87° NNE 01:37:44 22° WNW
ADEOS II 2.3 01:33:10 10° NNE 01:38:25 61° ESE 01:38:28 61° ESE
CZ-4B R/B 3.7 01:35:57 10° NNE 01:40:47 67° E 01:40:47 67° E
Cosmos 864 Rocket 4.4 01:37:46 10° NNW 01:43:29 67° WNW 01:43:29 67° WNW
SL-08 R/B 3.6 01:47:13 64° ENE 01:47:13 64° ENE 01:51:43 10° N
Cosmos 2181 Rocket 3.9 01:47:57 69° W 01:47:59 69° WNW 01:54:12 10° N
SL-08 R/B 4.5 01:41:36 10° N 01:48:02 89° E 01:49:28 58° S
Cosmos 1633 Rocket 3.8 01:45:39 10° N 01:48:58 49° NNE 01:48:58 49° NNE
IDEFIX/ARIANE 42P 4.0 01:46:29 10° NNE 01:51:16 34° E 01:53:40 23° SE
Cosmos 1666 Rocket 4.4 01:50:41 10° N 01:53:47 44° N 01:53:47 44° N
SL-16 R/B 3.7 01:57:26 28° WNW 01:57:26 28° WNW 02:00:59 10° NNW
Cosmos 1241 Rocket 4.3 01:54:48 70° WSW 01:55:32 80° NW 02:02:02 10° NE
Cosmos 1606 4.0 01:59:13 38° NNE 01:59:13 38° NNE 02:01:41 10° NNE
ATLAS CENTAUR R/B 4.4 01:42:17 11° W 01:59:46 63° NNW 02:06:05 10° ENE
ARIANE 5 R/B 3.2 01:55:29 10° NNE 02:00:27 48° E 02:01:51 38° SE
Cosmos 1151 Rocket 3.6 02:00:39 50° E 02:00:45 51° E 02:04:58 10° NNE
Cosmos 1943 Rocket 4.5 01:58:47 11° NW 02:01:19 14° NNW 02:04:03 10° N
IRS-1D 3.4 01:56:10 10° NNE 02:01:33 82° WNW 02:01:47 80° WSW
CZ-2D R/B 2.7 01:57:25 10° N 02:02:04 43° NW 02:02:04 43° NW
AQUA 4.4 01:58:14 10° N 02:02:08 48° NW 02:02:08 48° NW
ATLAS 5 CENTAUR R/B 2.2 02:07:56 48° NNW 02:07:56 48° NNW 02:12:28 10° NE
NPP 4.1 02:03:27 10° N 02:08:28 46° WNW 02:08:28 46° WNW
Genesis I 4.3 02:12:59 38° N 02:12:59 38° N 02:15:54 10° NE
CBERS-1 3.9 02:08:39 10° NNE 02:13:45 70° WNW 02:13:59 69° W
Cosmos 2297 Rocket 3.8 02:08:37 10° NW 02:10:32 20° NW 02:10:32 20° NW
Resurs 1-4 Rocket 3.0 02:11:26 10° N 02:15:58 34° WNW 02:15:58 34° WNW
Cosmos 1933 3.4 02:18:15 75° NE 02:18:15 75° NE 02:22:06 10° NNE
Cosmos 2082 3.6 02:12:37 10° NW 02:18:17 68° WSW 02:20:23 39° S
USA 305 4.0 02:22:42 34° SE 02:22:42 34° SE 02:26:31 10° ENE
Cosmos 2369 Rocket 4.5 02:22:55 10° NW 02:25:46 14° NNW 02:28:38 10° N
USA 306 3.9 02:26:37 36° SE 02:26:42 36° SE 02:30:37 10° ENE
Meteor 1-26 Rocket 4.5 02:24:04 28° SSE 02:26:55 62° E 02:32:15 10° NNE
X-37B 3.2 02:29:08 14° SE 02:29:08 14° SE 02:29:53 10° ESE
CZ-2D R/B 3.9 02:23:27 10° NNE 02:27:35 58° ESE 02:28:45 42° SSE
SJ 16-02 2.9 02:24:24 10° N 02:28:29 36° ENE 02:32:32 10° SE
Meteor 1-25 Rocket 4.1 02:24:19 10° NNW 02:30:08 73° W 02:33:00 31° S
Gbstr 26 Del rocket 4.4 02:27:26 27° W 02:32:25 86° SSW 02:39:59 10° ESE
Cosmos 389 Rocket 3.8 02:32:18 29° SE 02:33:22 37° E 02:36:41 10° NNE
ASTEX 1 3.6 02:28:36 10° N 02:33:37 72° E 02:36:22 27° S
IRS-P3 4.1 02:28:44 10° NNE 02:34:05 71° WNW 02:35:28 49° SW
Cosmos 1697 Rocket 2.7 02:32:33 42° SSW 02:34:31 79° ESE 02:40:10 10° NNE
CZ-2C R/B 4.3 02:33:08 10° NNE 02:37:34 29° E 02:42:02 10° SSE
H-2A R/B 2.7 02:33:30 10° SSE 02:37:48 59° ENE 02:42:13 10° N
Cosmos 1980 Rocket 2.9 02:35:19 23° S 02:38:41 50° ESE 02:44:09 10° NE
CZ-4C R/B 4.2 02:33:22 10° NW 02:38:56 31° NNE 02:45:26 10° ENE
USA 267 3.2 02:32:47 10° ENE 02:39:22 82° SSE 02:42:17 37° SW
ERS-2 3.8 02:37:52 10° SE 02:41:14 35° ENE 02:44:37 10° N
Iridium 2 4.3 02:39:47 31° SSE 02:41:18 54° E 02:44:59 10° NNE
Cosmos 1602 3.5 02:39:15 10° NNW 02:43:05 78° W 02:43:13 76° SW
ERS-1 4.4 02:38:40 10° NNE 02:43:48 77° WNW 02:45:42 40° SSW
Cosmos 2263 Rocket 2.6 02:38:57 10° NNW 02:44:35 64° NE 02:50:13 10° SE
SL-8 R/B 3.8 02:46:01 50° SW 02:46:33 53° SSW 02:51:11 10° ESE
Meteor 1-14 Rocket 4.1 02:41:13 10° NNW 02:46:55 88° W 02:52:28 10° S
Helios 1B 4.5 02:43:13 11° SSE 02:47:24 89° E 02:51:46 10° NNW
Cosmos 1818 4.1 02:46:11 35° W 02:47:52 46° NW 02:53:09 10° NE
ATLAS 2AS CENTAUR R/B 3.8 02:43:39 10° NW 02:51:07 48° NNE 02:58:02 10° ESE
SL-16 R/B 4.5 02:47:59 10° SSE 02:52:10 22° E 02:56:22 10° NE
Cosmos 1821 Rocket 4.2 02:47:17 10° NNW 02:53:21 49° W 02:56:29 27° SSW
USA 307 3.4 02:52:25 40° S 02:53:25 50° SSE 02:57:33 10° ENE
Cosmos 1470 Rocket 3.7 02:50:33 10° NNW 02:54:50 49° W 02:55:26 46° WSW
Cosmos 2227 4.3 02:49:52 10° NNW 02:55:35 78° ENE 03:01:13 10° SE
USA 308 3.3 02:55:23 40° SSW 02:56:30 52° SSE 03:00:39 10° ENE
Cosmos 1812 4.3 02:53:06 10° SSE 02:56:37 34° E 03:00:08 10° NNE
Spot 4 Rocket 3.9 02:51:31 10° NNE 02:56:43 85° WNW 02:59:44 26° SSW
Cosmos 1500 3.5 02:56:02 10° N 02:59:53 67° ENE 03:03:42 10° SSE
Cosmos 1666 4.3 03:02:06 10° N 03:05:43 37° ENE 03:09:17 10° SE
Landsat 5 3.5 03:01:20 10° S 03:05:52 77° WSW 03:10:22 10° NNW
Meteor 1-5 Rocket 4.2 03:01:02 10° N 03:06:23 77° ENE 03:11:44 10° SSE
Cosmos 1934 Rocket 3.9 03:02:30 10° NNW 03:08:29 61° W 03:14:25 10° S
Cosmos 1777 Rocket 4.5 03:04:34 10° NW 03:09:19 36° WSW 03:12:07 21° SSW
Cosmos 2227 Rocket 4.2 03:06:39 10° WNW 03:06:56 11° WNW 03:06:56 11° WNW
Cosmos 1238 Rocket 4.0 03:04:07 10° NNW 03:10:43 66° W 03:16:55 10° S
Cosmos 1782 2.8 03:10:11 35° SW 03:11:39 59° WNW 03:15:40 10° N
Cosmos 1898 Rocket 4.0 03:08:07 10° NNW 03:13:20 63° ENE 03:18:34 10° SE
Cosmos 1656 4.4 03:12:05 26° W 03:14:21 37° NW 03:19:29 10° NNE
Lacrosse 5 1.9 03:12:00 30° SW 03:14:34 81° SSE 03:19:40 10° ENE
CZ-2C R/B 2.6 03:12:44 10° N 03:16:29 72° WNW 03:18:32 26° SSW
ADEOS Rocket 3.4 03:09:42 10° SSE 03:16:29 75° ENE 03:22:36 10° NNW
CZ-4B R/B 2.7 03:13:35 10° SE 03:16:33 39° ENE 03:19:38 10° N
USA 234 3.6 03:10:37 10° SSE 03:16:40 39° SW 03:22:45 10° WNW
Cosmos 1515 Rocket 3.7 03:15:08 28° SW 03:17:12 53° WNW 03:21:35 10° N
ADEOS II 3.3 03:13:28 10° N 03:17:46 26° WNW 03:19:23 22° W
IRIDIUM 114 4.4 03:14:30 10° N 03:19:46 83° E 03:25:00 10° S
Nadezhda 3 Rocket 4.4 03:18:39 23° SW 03:21:57 42° WNW 03:27:47 10° N
USA 276 2.2 03:21:38 40° SW 03:22:32 61° S 03:25:43 10° E
Cosmos 972 Rocket 4.3 03:24:15 25° WSW 03:26:45 45° WNW 03:31:30 10° NNE
MSX 3.8 03:21:27 10° N 03:27:12 67° WNW 03:32:39 11° SSW
Cosmos 1356 3.9 03:24:08 10° NNW 03:27:20 36° W 03:28:27 28° SW
Cosmos 44 3.3 03:24:49 18° SSW 03:28:05 68° SE 03:32:45 10° NE
IRIDIUM 103 4.3 03:23:40 10° N 03:28:55 84° W 03:34:08 10° S
IDEFIX/ARIANE 42P 3.0 03:25:59 10° N 03:30:58 44° WNW 03:34:28 19° SW
Cosmos 1605 Rocket 4.0 03:24:57 10° NNW 03:31:15 64° W 03:37:34 10° S
Meteor 1-11 Rocket 3.9 03:25:38 10° NNW 03:31:31 81° ENE 03:37:13 10° SSE
Cosmos 921 Rocket 3.1 03:27:48 10° SSW 03:31:58 75° ESE 03:36:10 10° NNE
Cosmos 1933 Rocket 4.3 03:28:16 10° NNW 03:32:06 30° W 03:34:17 19° SW
Cosmos 2278 3.7 03:28:10 18° SW 03:32:28 69° WNW 03:38:11 10° NNE
CZ-3B R/B 2.8 03:32:05 22° W 03:34:19 69° N 03:45:39 10° ENE
Cosmos 2228 Rocket 3.0 03:31:12 11° SSW 03:35:20 65° WNW 03:39:45 10° N
SAR-Lupe-4 4.0 03:34:39 10° SSE 03:38:12 65° ENE 03:41:48 10° N
Cosmos 1151 Rocket 4.4 03:37:30 19° W 03:38:37 21° WNW 03:41:56 10° NNW
ARIANE 5 R/B 3.4 03:34:56 10° N 03:39:22 30° WNW 03:42:11 18° WSW
Cosmos 2369 4.2 03:36:41 19° WSW 03:40:32 46° NW 03:46:05 10° NNE
Cosmos 1937 Rocket 3.6 03:37:18 10° NNW 03:42:30 77° ENE 03:47:38 10° SSE
CZ-4C R/B 4.0 03:42:40 16° SW 03:44:46 26° W 03:47:51 10° NW
ALOS 3.5 03:41:44 10° NNE 03:46:14 45° E 03:50:42 10° S
Cosmos 1733 Rocket 3.7 03:42:01 10° N 03:46:22 59° ENE 03:50:38 10° SSE
IRIDIUM 106 4.3 03:42:03 10° N 03:47:13 61° W 03:52:21 10° SSW
Meteor 1-27 Rocket 4.3 03:42:54 10° S 03:48:47 67° E 03:54:39 10° NNE
Cosmos 1536 2.9 03:46:02 10° N 03:50:09 83° E 03:54:14 10° SSE
SAR-Lupe-1 4.1 03:46:56 10° SSE 03:50:31 86° ENE 03:54:07 10° NNW
Cosmos 1869 Rocket 3.8 03:47:02 10° NNW 03:51:12 44° W 03:55:19 10° SSW
ATLAS 5 CENTAUR R/B 3.6 03:49:49 10° WNW 03:53:29 23° N 03:57:37 10° NE
Cosmos 1484 Rocket 3.7 03:51:12 10° NNE 03:55:07 54° E 03:59:02 10° S
Meteor 1-4 Rocket 2.3 03:54:05 10° SSW 03:57:32 73° WNW 04:01:04 10° N
USA 305 2.9 03:58:51 14° WSW 04:02:27 82° NNW 04:06:43 10° ENE
X-37B 2.1 04:01:25 14° SW 04:03:23 23° S 04:06:00 10° SE
Cosmos 1689 Rocket 2.5 04:02:01 10° SSE 04:04:57 67° ENE 04:07:56 10° N
Meteor 1-31 Rocket 3.5 04:02:07 10° NNE 04:05:54 57° E 04:09:41 10° S
Cosmos 2100 Rocket 4.0 03:59:30 10° NNW 04:05:56 81° W 04:12:17 10° S
USA 306 2.9 04:02:46 13° WSW 04:06:32 80° NNW 04:10:48 10° ENE
SJ 16-02 2.0 04:03:07 10° NW 04:07:00 31° WSW 04:10:53 10° SSW
Cosmos 1763 Rocket 3.7 04:02:43 10° SSW 04:08:02 79° ESE 04:13:22 10° NNE
Cosmos 1727 Rocket 4.0 04:01:44 10° SSW 04:08:03 70° WNW 04:14:24 10° N
Cosmos 389 Rocket 4.0 04:06:11 13° WSW 04:08:13 19° WNW 04:10:54 10° NNW
Cosmos 1802 Rocket 4.1 04:02:04 10° N 04:08:17 83° E 04:14:31 10° SSE
PSLV R/B 3.9 04:04:22 10° N 04:08:25 45° WNW 04:12:23 10° SW
Cosmos 2360 Rocket 3.7 04:07:33 10° S 04:12:45 39° ESE 04:17:58 10° NE
H-2A R/B 3.4 04:11:00 10° SW 04:14:10 19° W 04:17:22 10° NW
ERS-2 3.3 04:11:55 10° SSW 04:14:52 23° W 04:17:50 10° NW
CZ-2C R/B 2.8 04:11:06 10° N 04:15:59 49° WNW 04:20:56 10° SW
NOSS 3-4 (A) 3.8 04:11:35 10° NW 04:18:28 77° SW 04:26:08 10° SE
NOSS 3-4 (C) 3.9 04:11:41 10° NW 04:18:35 78° SW 04:26:15 10° SE
Cosmos 1697 Rocket 3.9 04:14:25 10° W 04:19:07 27° NW 04:23:51 10° NNE
PAYLOAD A 4.4 04:15:08 10° N 04:19:32 39° WNW 04:23:52 10° SW
METEOR-M 4.4 04:14:58 10° NNE 04:20:22 75° ESE 04:25:43 10° S
USA 267 3.6 04:15:51 10° ENE 04:22:16 60° N 04:28:41 10° W
Cosmos 1980 Rocket 2.9 04:17:37 10° WSW 04:22:53 38° NW 04:28:10 10° NNE
FENGYUN 3A 3.7 04:18:17 10° NNE 04:23:43 89° WNW 04:29:07 10° SSW
Cosmos 2278 Rocket 4.3 04:18:57 10° NNW 04:23:43 27° NE 04:28:28 10° E
Cosmos 1844 4.1 04:19:01 10° NNW 04:24:37 69° NE 04:30:09 10° SE
Cosmos 1459 Rocket 4.0 04:21:37 10° NNW 04:27:39 62° W 04:33:36 10° S
Cosmos 2322 Rocket 2.4 04:22:16 10° SSW 04:27:57 82° ESE 04:33:42 10° NNE
Cosmos 2263 Rocket 3.1 04:23:28 10° NW 04:28:07 27° WSW 04:32:46 10° SSW
CZ-4C R/B 3.6 04:22:09 10° NW 04:28:49 57° NE 04:36:42 10° ESE
NOSS 3-3 (A) 4.1 04:23:58 10° SW 04:29:54 74° NW 04:36:44 10° NE
NOSS 3-3 (C) 4.0 04:24:09 10° SW 04:30:01 74° NW 04:36:49 10° NE
Cosmos 2123 Rocket 4.4 04:26:41 10° S 04:32:53 72° E 04:39:11 10° NNE
